Location: Casteau
(50.5142°N, 4.0161°E)
Time: 05:17:11
(UTC+00:00)

SJ-6B - Pass Details

Date: 18 September 2020
Orbit: 511 x 580 km, 97.6° (Epoch: 29 October)

Event Time Altitude Azimuth Distance (km) Brightness Sun altitude
Exits shadow 19:22:14 15° 163° (SSE) 1,437 4.6 -15.1°
Maximum altitude 19:25:15 85° 78° (ENE) 522 2.6 -15.5°
Drops below altitude 10° 19:29:03 10° 347° (NNW) 1,758 5.9 -16.1°
Sets 19:31:10 0° 347° (NNW) 2,658 6.8 -16.4°
